Location: Le Domaine
(47.0333°N, 76.5361°W)
Time: 13:04:31
(UTC-05:00)

S-56A Canister/Altair - All Passes

Search period start: 19 November 2019 00:00
Search period end: 29 November 2019 00:00
Orbit: 634 x 2498 km, 38.9° (Epoch: 17 November)

Date Brightness Start Highest point End Pass type
(mag) Time Alt. Az. Time Alt. Az. Time Alt. Az.
19 Nov - 14:18:50 10° SSE 14:22:46 12° SE 14:26:17 10° ESE daylight
19 Nov - 16:18:03 10° SSW 16:26:46 29° SSE 16:33:03 10° ESE daylight
19 Nov - 18:22:25 10° WSW 18:30:38 42° S 18:36:16 10° ESE visible
19 Nov - 20:27:52 10° WSW 20:33:58 33° SSW 20:38:31 10° SE visible
19 Nov - 22:34:46 10° SW 22:36:22 11° SW 22:37:54 10° SSW night (unlit)
20 Nov - 13:46:53 10° SSE 13:49:51 11° SE 13:52:36 10° SE daylight
20 Nov - 15:44:48 10° SSW 15:53:53 29° SSE 16:00:31 10° E daylight
20 Nov - 17:49:01 10° WSW 17:57:54 43° S 18:03:56 10° ESE visible
20 Nov - 19:54:34 10° W 20:01:24 37° SSW 20:06:19 10° SE visible
20 Nov - 22:00:58 10° WSW 22:03:57 14° SW 22:06:35 10° S visible
21 Nov - 13:16:47 10° SE 13:16:54 10° SE 13:17:00 10° SE daylight
21 Nov - 15:11:34 10° SSW 15:20:56 28° SSE 15:27:56 10° E daylight
21 Nov - 17:15:34 10° WSW 17:25:06 44° S 17:31:34 10° ESE visible
21 Nov - 19:21:13 10° WSW 19:28:47 41° SSW 19:34:05 10° ESE visible
21 Nov - 21:27:26 10° WSW 21:31:30 18° SW 21:34:53 10° S visible
22 Nov - 14:38:21 10° SSW 14:47:58 27° SSE 14:55:17 10° E daylight
22 Nov - 16:42:04 10° SW 16:52:15 44° S 16:59:10 10° E visible
22 Nov - 18:47:47 10° WSW 18:56:07 44° S 19:01:49 10° ESE visible
22 Nov - 20:53:59 10° W 20:59:01 22° SSW 21:03:01 10° SSE visible
23 Nov - 14:05:13 10° SSW 14:14:56 25° SSE 14:22:31 10° E daylight
23 Nov - 16:08:33 10° SW 16:19:20 43° SSE 16:26:43 10° E daylight
23 Nov - 18:14:17 10° WSW 18:23:24 47° S 18:29:32 10° ESE visible
23 Nov - 20:20:32 10° W 20:26:31 26° SSW 20:31:03 10° SSE visible
24 Nov - 13:32:09 10° SSW 13:41:53 24° SSE 13:49:40 10° E daylight
24 Nov - 15:35:01 10° SW 15:46:21 43° SSE 15:54:13 10° E daylight
24 Nov - 17:40:43 10° WSW 17:50:37 49° S 17:57:13 10° ESE visible
24 Nov - 19:47:03 10° W 19:53:59 30° SSW 19:59:00 10° SSE visible
25 Nov - 12:59:11 10° S 13:08:47 23° SE 13:16:42 10° E daylight
25 Nov - 15:01:31 10° SW 15:13:18 42° SSE 15:21:40 10° E daylight
25 Nov - 17:07:06 10° WSW 17:17:45 51° S 17:24:51 10° ESE visible
25 Nov - 19:13:30 10° W 19:21:22 35° SSW 19:26:54 10° SE visible
25 Nov - 21:22:53 10° SW 21:23:34 10° SW 21:24:14 10° SW visible
26 Nov - 12:26:22 10° S 12:35:41 21° SE 12:43:35 10° E daylight
26 Nov - 14:28:03 10° SW 14:40:12 41° SSE 14:49:03 10° E daylight
26 Nov - 16:33:28 10° WSW 16:44:50 53° S 16:52:26 10° ESE daylight
26 Nov - 18:39:55 10° W 18:48:43 39° SSW 18:54:44 10° SE visible
26 Nov - 20:47:44 10° WSW 20:51:06 14° SW 20:54:02 10° SSW visible
27 Nov - 11:53:42 10° S 12:02:33 19° SE 12:10:18 10° E daylight
27 Nov - 13:54:37 10° SW 14:07:03 40° SSE 14:16:22 10° E daylight
27 Nov - 15:59:47 10° WSW 16:11:50 53° S 16:20:00 10° ESE daylight
27 Nov - 18:06:18 10° W 18:15:58 44° SSW 18:22:30 10° SE visible
27 Nov - 20:13:41 10° W 20:18:38 18° SW 20:22:38 10° S visible
28 Nov - 11:21:16 10° S 11:29:26 17° SE 11:36:48 10° ESE daylight
28 Nov - 13:21:16 10° SW 13:33:51 38° SSE 13:43:35 10° E daylight
28 Nov - 15:26:07 10° WSW 15:38:45 54° S 15:47:28 10° E daylight
28 Nov - 17:32:37 10° W 17:43:09 47° SSW 17:50:13 10° SE visible
28 Nov - 19:39:50 10° W 19:46:07 22° SW 19:50:56 10° S visible
